Weather History for KCOU - November, 2011

Change the Weather History Date:

Monday, November 7, 2011

  Actual Average Record
Temperature  
Mean Temperature 58 °F 49 °F  
Max Temperature 62 °F 58 °F 83 °F (1915)
Min Temperature 54 °F 39 °F 5 °F (1991)
Degree Days  
Heating Degree Days 7 17  
Month to date heating degree days 82 108  
Since 1 July heating degree days 435 473  
Cooling Degree Days 0 0  
Month to date cooling degree days 0 0  
Year to date cooling degree days 1508 1247  
Growing Degree Days 8 (Base 50)    
Moisture  
Dew Point 57 °F    
Average Humidity 95    
Maximum Humidity 100    
Minimum Humidity 90    
Precipitation  
Precipitation 0.48 in 0.11 in 1.76 in (1909)
Month to date precipitation 2.00 0.73  
Year to date precipitation 33.67 37.66  
Snow  
Snow 0.00 in 0.00 in 2.00 in (1991)
Month to date snowfall T 0.1  
Since 1 July snowfall T 0.1  
Since 1 September snowfall T 0.1  
Snow Depth 0.00 in    
Sea Level Pressure  
Sea Level Pressure 30.09 in    
Wind  
Wind Speed 6 mph (SE)    
Max Wind Speed 17 mph    
Max Gust Speed 22 mph    
Visibility 5 miles    
Events Rain    
T = Trace of Precipitation, MM = Missing Value Source: NWS Daily Summary

Daily Weather History Graph

Daily Weather History Graph

Search for Another Location

Airport or City:

Trip Planner

Search our weather history database for the weather conditions in past years. The results will help you decide how hot, cold, wet, or windy it might be!

Date:

Astronomy

Nov. 07, 2011 Rise Set
Actual Time 6:42 AM CST 5:02 PM CST
Civil Twilight 6:14 AM CST 5:30 PM CST
Nautical Twilight 5:42 AM CST 6:02 PM CST
Astronomical Twilight 5:11 AM CST 6:33 PM CST
Moon 3:12 PM CST (11/7) 3:46 AM CST (11/7)
Length of Visible Light 11h 16m
Length of Day
10h 20m
Waxing Gibbous, 92% of the Moon is Illuminated
Nov 7
Waxing Gibbous
Nov 10
Full
Nov 18
Last Quarter
Nov 25
New
Dec 2
First Quarter

Hourly Weather History & Observations

Time (CST) Temp. Dew Point Humidity Pressure Visibility Wind Dir Wind Speed Gust Speed Precip Events Conditions
12:54 AM 54.0 °F 52.0 °F 93% 30.08 in 10.0 mi SE 6.9 mph - N/A   Overcast
1:54 AM 54.0 °F 52.0 °F 93% 30.09 in 10.0 mi SSE 9.2 mph - N/A   Overcast
2:54 AM 54.0 °F 52.0 °F 93% 30.09 in 10.0 mi SSE 6.9 mph - N/A   Mostly Cloudy
3:46 AM 55.4 °F 53.6 °F 94% 30.11 in 10.0 mi SSE 8.1 mph - N/A   Overcast
3:54 AM 55.0 °F 53.1 °F 93% 30.10 in 10.0 mi SSE 6.9 mph - N/A   Overcast
4:38 AM 55.4 °F 53.6 °F 94% 30.11 in 10.0 mi South 4.6 mph - N/A   Overcast
4:46 AM 55.4 °F 53.6 °F 94% 30.11 in 10.0 mi Calm Calm - 0.00 in Rain Light Rain
4:54 AM 55.4 °F 53.6 °F 94% 30.11 in 10.0 mi South 4.6 mph - N/A Rain Light Rain
5:54 AM 55.4 °F 55.4 °F 100% 30.12 in 5.0 mi SSE 4.6 mph - N/A Rain Light Rain
6:06 AM 55.4 °F 55.4 °F 100% 30.12 in 1.8 mi SSE 5.8 mph - 0.04 in Rain Heavy Rain
6:15 AM 55.4 °F 55.4 °F 100% 30.12 in 1.5 mi SSE 4.6 mph - 0.16 in Rain Heavy Rain
6:25 AM 55.4 °F 55.4 °F 100% 30.12 in 2.0 mi Calm Calm - 0.23 in Rain Heavy Rain
6:36 AM 55.4 °F 55.4 °F 100% 30.12 in 3.0 mi Calm Calm - 0.28 in Rain Rain
6:54 AM 55.9 °F 55.9 °F 100% 30.12 in 3.0 mi Calm Calm - 0.33 in Rain Rain
7:17 AM 55.4 °F 55.4 °F 100% 30.13 in 2.0 mi Calm Calm - 0.04 in Rain Rain
7:36 AM 55.4 °F 55.4 °F 100% 30.14 in 3.0 mi SE 3.5 mph - 0.06 in Rain Light Rain
7:54 AM 55.9 °F 55.9 °F 100% 30.14 in 6.0 mi Calm Calm - 0.06 in Rain Light Rain
8:32 AM 57.2 °F 57.2 °F 100% 30.15 in 5.0 mi Calm Calm - 0.01 in Rain Light Rain
8:54 AM 57.2 °F 57.2 °F 100% 30.15 in 3.0 mi Calm Calm - N/A Rain Rain
9:03 AM 57.2 °F 57.2 °F 100% 30.14 in 2.0 mi East 3.5 mph - 0.03 in Rain Rain
9:16 AM 57.2 °F 57.2 °F 100% 30.15 in 3.0 mi Calm Calm - 0.05 in Rain Light Rain
9:54 AM 57.0 °F 57.0 °F 100% 30.15 in 3.0 mi SE 3.5 mph - 0.05 in   Overcast
10:04 AM 57.2 °F 57.2 °F 100% 30.15 in 1.8 mi SE 3.5 mph - N/A   Overcast
10:54 AM 57.9 °F 57.9 °F 100% 30.15 in 2.5 mi SE 3.5 mph - 0.01 in   Overcast
11:06 AM 57.2 °F 57.2 °F 100% 30.15 in 2.0 mi Variable 3.5 mph - N/A   Overcast
11:34 AM 57.2 °F 57.2 °F 100% 30.13 in 3.0 mi Calm Calm - N/A   Overcast
11:45 AM 57.2 °F 57.2 °F 100% 30.13 in 2.5 mi SSE 3.5 mph - N/A   Overcast
11:52 AM 59.0 °F 57.2 °F 94% 30.12 in 3.0 mi SSE 3.5 mph - N/A   Overcast
11:54 AM 59.0 °F 57.9 °F 96% 30.12 in 3.0 mi Calm Calm - N/A   Overcast
12:54 PM 59.0 °F 57.9 °F 96% 30.09 in 6.0 mi Calm Calm - N/A   Overcast
1:54 PM 60.1 °F 59.0 °F 96% 30.08 in 7.0 mi East 3.5 mph - N/A   Overcast
2:54 PM 60.1 °F 59.0 °F 96% 30.08 in 4.0 mi East 5.8 mph - N/A   Overcast
3:54 PM 59.0 °F 59.0 °F 100% 30.07 in 3.0 mi East 4.6 mph - 0.00 in Rain Light Rain
4:54 PM 59.0 °F 59.0 °F 100% 30.03 in 2.5 mi ENE 10.4 mph - 0.00 in   Overcast
5:54 PM 59.0 °F 57.9 °F 96% 30.02 in 2.5 mi East 9.2 mph - 0.01 in   Overcast
6:25 PM 59.0 °F 57.2 °F 94% 30.03 in 3.0 mi East 10.4 mph - 0.00 in   Overcast
6:54 PM 59.0 °F 59.0 °F 100% 30.02 in 3.0 mi East 10.4 mph - 0.00 in   Overcast
7:51 PM 60.8 °F 59.0 °F 94% 30.01 in 6.0 mi ESE 11.5 mph - N/A   Overcast
7:54 PM 60.8 °F 59.0 °F 94% 30.01 in 6.0 mi ESE 11.5 mph - N/A   Overcast
8:22 PM 60.8 °F 59.0 °F 94% 30.01 in 6.0 mi ESE 9.2 mph - N/A   Overcast
8:54 PM 60.1 °F 59.0 °F 96% 30.00 in 7.0 mi ESE 9.2 mph - N/A   Overcast
9:54 PM 60.1 °F 57.9 °F 93% 29.97 in 10.0 mi SE 12.7 mph - N/A   Scattered Clouds
10:54 PM 61.0 °F 57.0 °F 87% 29.94 in 10.0 mi SSE 13.8 mph - N/A   Mostly Cloudy
11:54 PM 61.0 °F 57.0 °F 87% 29.93 in 10.0 mi SSE 13.8 mph - N/A   Overcast